Informationen zur Loipe auf der Atzenberger Höhe
 
19.01.2019Höhe
ü. NN
ZeitTemperatur (°C)Nieder-
schlag
Luft-
feuchte
Luft-
druck
Wind
StationaktuellMinimumMaximumaktuellMaximum
Aldingen654 m22:06-5,8-10,0 (05:59)-2,0 (14:43)0,0 l/m²92%1016,43,7 km/h (1 Bft) SO14,8 km/h (3 Bft) S-SO (13:07)
Allmannsweiler625 m22:05-9,2-9,3 (22:05)-2,8 (15:25)0,0 l/m²93%1015,40,0 km/h (0 Bft) SO12,9 km/h (3 Bft) SW (13:50)
Allmendingen541 m22:05-8,6-10,2 (07:25)-3,4 (00:35)0,0 l/m²90%1015,80,0 km/h (0 Bft) S-SW16,1 km/h (3 Bft) SO (09:05)
Altshausen574 m22:05-8,3-8,3 (21:57)-2,3 (14:44)0,0 l/m²88%1011,60,0 km/h (0 Bft) W-SW11,3 km/h (2 Bft) N-NO (00:05)
Amstetten-Reutti663 m22:05-7,2-8,0 (06:10)-4,1 (14:40)0,0 l/m²94%1015,512,9 km/h (3 Bft) S27,4 km/h (4 Bft) O (09:45)
Amtzell-Grenis677 m22:05-8,2-8,2 (22:00)-2,1 (14:15)0,0 l/m²88%1017,04,8 km/h (1 Bft) NO16,1 km/h (3 Bft) O-SO (00:00)
Aulendorf570 m22:05-8,0-8,0 (22:02)-2,5 (15:13)0,0 l/m²86%1015,10,0 km/h (0 Bft) S-SW14,5 km/h (3 Bft) NO (00:34)
Bad Krozingen233 m22:05-3,3-5,7 (08:50)0,4 (15:35)0,0 l/m²92%1015,30,0 km/h (0 Bft) O6,6 km/h (2 Bft) W-NW (13:25)
Bad Saulgau595 m22:05-7,8-7,8 (22:05)-1,9 (15:15)0,0 l/m²90%1014,40,0 km/h (0 Bft) W-NW12,9 km/h (3 Bft) W (07:00)
Bad Saulgau-Lampertsweiler627 m22:05-7,2-7,5 (21:00)-2,8 (00:00)0,0 l/m²89%1017,90,0 km/h (0 Bft) O-SO14,5 km/h (3 Bft) S-SO (10:50)
Bad Schussenried572 m22:05-6,8-7,1 (20:40)-2,6 (15:10)0,0 l/m²91%1013,90,0 km/h (0 Bft) SW11,3 km/h (2 Bft) O-NO (00:15)
Bergatreute615 m22:05-10,4-10,4 (22:05)-2,0 (14:20)0,0 l/m²93%1015,80,0 km/h (0 Bft) N12,9 km/h (3 Bft) O-NO (00:00)
Biberach (Riss), Boehringer533 m22:00-8,1-8,2 (22:00)-2,9 (00:00)0,0 l/m²94%1013,80,0 km/h (0 Bft) W-NW16,6 km/h (3 Bft) S (13:50)
Biberach (Riss), Realschule553 m22:05-9,2-9,2 (22:05)-3,2 (00:00)0,0 l/m²92%1016,70,0 km/h (0 Bft) O-SO16,1 km/h (3 Bft) W-SW (12:55)
Bodnegg-Rotheidlen677 m22:05-7,9-8,1 (06:20)-2,7 (14:25)0,0 l/m²93%1015,80,0 km/h (0 Bft) W-NW14,5 km/h (3 Bft) O (00:00)
Burgrieden523 m22:05-7,2-7,2 (22:05)-3,2 (00:00)0,0 l/m²86%1015,50,0 km/h (0 Bft) S12,9 km/h (3 Bft) S (17:35)
Burgrieden-Hochstetten510 m22:05-7,6-7,6 (22:05)-2,8 (23:00)0,0 l/m²91%1015,64,8 km/h (1 Bft) SO14,5 km/h (3 Bft) SO (08:15)
Donauwörth411 m22:05-6,3-6,3 (22:05)-0,8 (15:05)0,0 l/m²91%1015,80,0 km/h (0 Bft) O-SO22,5 km/h (4 Bft) O (10:45)
Ebersbach579 m22:05-8,7-8,7 (21:55)-2,6 (00:00)0,0 l/m²93%1016,40,0 km/h (0 Bft) O17,7 km/h (3 Bft) O-NO (00:00)
Ebersbach-Boos605 m22:05-8,9-8,9 (22:05)-2,5 (15:15)0,0 l/m²93%1016,20,0 km/h (0 Bft) O-SO22,5 km/h (4 Bft) O (00:05)
Ebersbach-Menzenweiler661 m22:05-6,9-6,9 (21:55)-3,1 (15:05)0,0 l/m²95%1016,18,0 km/h (2 Bft) O-NO29,0 km/h (5 Bft) O-NO (00:00)
Ehingen535 m22:05-8,4-8,4 (22:05)-3,7 (00:50)0,0 l/m²87%1016,00,0 km/h (0 Bft) W12,8 km/h (3 Bft) W (08:50)
Erlenmoos645 m22:05-9,0-9,0 (22:05)-2,6 (15:15)0,0 l/m²85%1015,70,0 km/h (0 Bft) O-NO0,0 km/h (0 Bft) W (00:00)
Ertingen569 m22:05-7,2-7,2 (21:50)-2,8 (15:20)0,0 l/m²90%1015,50,0 km/h (0 Bft) O-SO12,9 km/h (3 Bft) N-NO (07:10)
Friedrichshafen405 m22:05-4,9-5,0 (08:15)2,1 (15:25)0,0 l/m²88%1015,86,4 km/h (2 Bft) NO12,9 km/h (3 Bft) O (23:10)
Günzburg443 m22:00-6,8-7,1 (21:20)-2,2 (15:09)0,0 l/m²89%1013,10,0 km/h (0 Bft) W14,5 km/h (3 Bft) O-SO (09:25)
Höchsten802 m22:05-6,1-7,7 (08:35)-4,1 (14:50)0,0 l/m²93%1013,50,0 km/h (0 Bft) SO38,6 km/h (5 Bft) N-NO (00:35)
Horgenzell618 m22:05-5,1-5,2 (03:50)-3,7 (00:00)0,0 l/m²90%1013,58,0 km/h (2 Bft) O-NO19,3 km/h (3 Bft) NO (00:25)
Hoßkirch632 m22:05-8,6-8,6 (21:30)-2,7 (14:25)0,0 l/m²92%1014,90,0 km/h (0 Bft) SW20,9 km/h (4 Bft) O-NO (00:35)
Isny, Am Dreifingerbach695 m22:05-9,7-11,4 (06:00)-2,3 (15:05)0,0 l/m²90%1015,74,8 km/h (1 Bft) O-SO8,0 km/h (2 Bft) O (05:25)
Isny, Weidachweg706 m22:05-10,2-11,7 (08:20)-1,3 (14:10)0,0 l/m²89%1017,34,8 km/h (1 Bft) SO11,3 km/h (2 Bft) SW (02:20)
Kappel-Grafenhausen163 m22:00-3,1-4,9 (08:20)2,4 (14:45)0,0 l/m²90%1013,10,0 km/h (0 Bft) N6,4 km/h (2 Bft) N-NO (10:25)
Kirchberg an der Iller584 m22:05-8,2-8,2 (21:55)-3,2 (23:00)0,0 l/m²88%1005,20,0 km/h (0 Bft) O-SO8,0 km/h (2 Bft) S-SW (01:55)
Kißlegg-Staibshof709 m22:05-7,1-7,2 (08:10)-1,4 (15:20)0,0 l/m²96%1015,60,0 km/h (0 Bft) N-NO11,3 km/h (2 Bft) O-NO (00:00)
Kressbronn398 m22:06-4,8-5,1 (07:56)-0,4 (14:52)0,0 l/m²84%1014,60,0 km/h (0 Bft) NO12,9 km/h (3 Bft) NO (01:08)
Kreuzthal-Steinberg-Alpe930 m21:50-5,7-10,0 (08:00)2,6 (12:50)0,0 l/m²100%1015,00,0 km/h (0 Bft) O13,7 km/h (3 Bft) W-NW (00:00)
Kreuzthal-Steinberggipfel1040 m22:00-3,5-8,9 (07:50)0,1 (14:10)-84%1015,011,5 km/h (2 Bft) SW22,7 km/h (4 Bft) O-SO (00:40)
Kristberg im Montafon (AT)1425 m22:05-8,2-9,5 (05:20)3,1 (12:15)0,0 l/m²71%1015,34,8 km/h (1 Bft) N12,9 km/h (3 Bft) N (09:00)
Laupheim500 m22:05-7,1-7,1 (21:55)-3,2 (00:00)0,0 l/m²90%1015,13,2 km/h (1 Bft) SW14,5 km/h (3 Bft) S-SW (12:20)
Lindau-Insel420 m22:05-4,7-6,2 (08:30)1,4 (14:45)0,0 l/m²85%1014,88,0 km/h (2 Bft) N-NO11,3 km/h (2 Bft) W (13:55)
Lindau-Stadt412 m22:05-5,3-6,8 (07:45)-0,4 (11:50)0,0 l/m²85%1015,28,0 km/h (2 Bft) O-NO9,7 km/h (2 Bft) N (01:10)
Maierhöfen im Allgäu733 m22:05-14,2-15,2 (08:10)1,6 (13:30)0,0 l/m²88%1016,90,0 km/h (0 Bft) SW4,8 km/h (1 Bft) O (01:45)
Maselheim-Sulmingen548 m22:05-8,7-8,8 (21:10)-3,7 (23:00)0,0 l/m²92%1017,14,8 km/h (1 Bft) O-SO12,9 km/h (3 Bft) O (23:05)
Mietingen-Baltringen528 m22:05-8,1-8,1 (22:00)-3,3 (00:00)0,0 l/m²87%1017,54,8 km/h (1 Bft) W12,9 km/h (3 Bft) SO (08:20)
Mindelheim-Apfeltrach620 m21:56-13,1-13,1 (21:52)-2,3 (14:59)0,2 l/m²87%1017,00,0 km/h (0 Bft) NW6,4 km/h (2 Bft) NO (06:59)
Neresheim552 m22:00-6,1-6,1 (22:00)-3,8 (15:33)0,0 l/m²92%1012,20,0 km/h (0 Bft) S15,1 km/h (3 Bft) O-SO (09:22)
Neukirch570 m22:05-7,1-7,4 (07:10)-0,8 (13:00)0,0 l/m²92%1015,94,8 km/h (1 Bft) NO9,7 km/h (2 Bft) NO (23:30)
Ochsenhausen, Birkenstraße613 m22:05-10,7-10,7 (22:05)-3,5 (14:15)0,0 l/m²84%1016,34,8 km/h (1 Bft) O11,3 km/h (2 Bft) O-NO (08:05)
Ochsenhausen, Unt. Wiesen575 m22:05-10,6-10,6 (22:00)-3,7 (00:00)0,0 l/m²90%1017,28,0 km/h (2 Bft) S14,5 km/h (3 Bft) S-SO (08:05)
Ostrach619 m22:05-8,7-8,7 (22:00)-1,3 (14:40)0,0 l/m²92%1014,21,6 km/h (1 Bft) S-SO17,7 km/h (3 Bft) N-NO (23:00)
Ravensburg428 m22:05-5,9-5,9 (22:05)-0,4 (15:10)0,0 l/m²90%1015,08,0 km/h (2 Bft) N16,1 km/h (3 Bft) N-NO (01:45)
Ravensburg-Wernsreute511 m22:05-6,9-7,0 (21:20)-1,7 (15:25)0,0 l/m²91%1017,78,0 km/h (2 Bft) N22,5 km/h (4 Bft) N-NO (23:30)
Reichenbach an der Fils343 m22:05-5,6-5,6 (22:00)-1,8 (11:20)0,0 l/m²84%1017,40,0 km/h (0 Bft) O-SO24,1 km/h (4 Bft) O (20:10)
Reinstetten559 m22:05-10,7-10,7 (22:05)-3,2 (00:00)0,0 l/m²91%1016,38,0 km/h (2 Bft) S-SW17,7 km/h (3 Bft) SO (09:35)
Riedlingen530 m22:05-7,3-7,3 (22:05)-3,2 (15:25)0,0 l/m²91%1015,60,0 km/h (0 Bft) O-NO12,9 km/h (3 Bft) O-NO (00:45)
Schemmerhofen520 m22:05-8,5-8,5 (22:00)-3,0 (00:00)0,0 l/m²91%1015,33,2 km/h (1 Bft) SW12,9 km/h (3 Bft) N-NO (04:00)
Silbertal im Montafon (AT)884 m22:05-7,7-9,2 (06:40)-4,6 (14:50)0,0 l/m²91%1017,60,0 km/h (0 Bft) SO3,2 km/h (1 Bft) S-SO (02:00)
Tettnang466 m22:05-5,1-5,9 (07:35)-0,5 (14:55)0,0 l/m²86%1014,26,4 km/h (2 Bft) NO14,5 km/h (3 Bft) O (01:05)
Tuttlingen662 m22:00-7,4-9,6 (05:10)-3,9 (14:35)0,0 l/m²89%1015,70,0 km/h (0 Bft) O-SO11,3 km/h (2 Bft) O-SO (14:40)
Ummendorf547 m22:05-9,7-9,9 (22:00)-3,4 (01:30)0,0 l/m²90%1016,81,6 km/h (1 Bft) S-SO16,1 km/h (3 Bft) SW (13:05)
Ummendorf-Fischbach558 m22:05-10,3-10,4 (21:45)-3,9 (01:25)0,0 l/m²90%1017,20,0 km/h (0 Bft) S-SO14,5 km/h (3 Bft) O-NO (01:35)
Waldburg707 m22:05-7,6-7,6 (22:00)-3,2 (13:05)0,0 l/m²92%1015,20,0 km/h (0 Bft) N14,5 km/h (3 Bft) N (00:15)
Waltenhofen im Allgäu720 m22:05-13,0-13,7 (07:35)-0,8 (13:35)0,2 l/m²89%1016,30,0 km/h (0 Bft) S-SW4,8 km/h (1 Bft) S-SW (11:55)
Weingarten500 m22:05-7,9-7,9 (22:05)-1,5 (14:25)0,0 l/m²88%1015,61,6 km/h (1 Bft) O-NO8,0 km/h (2 Bft) O-NO (00:55)
Winterlingen785 m21:45-6,8-10,0 (07:00)-3,9 (16:00)0,0 l/m²96%1013,74,0 km/h (1 Bft) S-SW7,2 km/h (2 Bft) S-SO (10:40)

niederschlagsdatenbank | info | login - erfassung

Sollten Sie Interesse haben, an der Niederschlagsdatenbank teilzunehmen, finden Sie > hier < weitere Informationen.
Datum: . . Kalender
Anmerkung:0,0 = nicht messbarer Niederschlag
 -  = kein Niederschlag
 k  = kumulierter Niederschlag

< 09.01.201911.01.2019 >


Niederschlagswerte vom 10.01.2019    -    derzeit 103 Stationen

Die Niederschlagswerte des gewählten Tages lassen sich durch Klicken auf das Datum sortieren.
Die Angaben sind in l/m².

Station07.01.08.01.09.01.10.01.11.01.12.01.13.01.Bemerkung 10.01.
Aichstetten-Nestbaum-------
Albbruck 3,813,02,80,5-22,538,5
Am Vormittag einzelne Schnee Regenschauer, danach bewölkt +2°C Nach [weiterlesen...]
Schneeregen
Schneehöhe: 5,0
Allmendingen4,711,35,5-4,312,523,5
Amstetten-Reutti2,214,67,60,66,010,831,0
Schnee
Schneehöhe: 29 cm
Aulendorf2,22,98,56,07,58,012,0
gemessene Niederschlagsmenge vermutlich ungenau, da der Messbecher wie [weiterlesen...]
Schnee Schneegriesel
Schneehöhe: 21 cm
Aulendorf-Blönried2,13,310,02,85,06,012,0
Schnee
Schneehöhe: 21 cm
Aulendorf-Zollenreute3,0---4,52,012,5
Schnee
Schneehöhe: 17 cm
Bad Buchau3,06,07,05,56,09,012,0
Schnee
Bad Saulgau Walserweg2,55,06,02,04,56,011,5
Schnee
Schneehöhe: 20 cm
Bad Saulgau-Hochberg-------
Bad Schussenried Konradstraße3,03,210,13,24,37,712,4
Schnee Graupel Schneegriesel
Schneehöhe: 23 cm
Bad Schussenried Lortzingstrasse3,04,08,05,03,58,013,5
Schnee
Bad Schussenried Klosterstraße3,25,07,03,05,010,513,0
Schnee
Bad Schussenried Theodor-Storm-Strasse4,03,810,04,44,510,012,8
Schnee
Bad Schussenried-Hopferbach4,04,07,53,07,09,013,5
Schnee
Bad Schussenried-Schwaigfurt3,53,08,52,56,011,014,5
Bad Waldsee-Haisterkirch4,03,515,65,110,99,017,3
-4/+0,3°C, vormittags ordentlicher, nachmittags leichter und anhalten [weiterlesen...]
Schnee
Schneehöhe: 33 cm
Bad Wurzach-Dietmanns-------
Bad Wurzach-Seibranz5,53,011,57,76,55,517,0
Schneehöhe: 56 cm
Baienfurt8,06,016,016,016,012,016,0
Schnee
Schneehöhe: 18cm
Balzheim1,56,07,05,02,010,016,0
Schnee
Schneehöhe: 16 cm
Berg-Kleintobel7,12,98,511,04,98,214,8
Schnee
Schneehöhe: 19 cm
Biberach Amriswilstrasse3,45,38,05,04,07,514,7
Schnee
Schneehöhe: 17 cm
Biberach Strölinweg-30,07,5---32,0
Schneehöhe: 12 cm
Biberach Erlenweg-------
Schneehöhe: 18 cm
Biberach Neue Heimat 5-------
Biberach Mittelbergstraße 93,05,08,04,04,010,014,5
Schnee
Schneehöhe: 16 cm
Biberach-Bergerhausen-9,07,02,04,09,015,5
Bierstetten4,04,210,03,54,36,4-
Schnee
Blaubeuren-Pappelau----21,019,030,0
Bühlertal10,010,02,03,03,014,07,0
Regen Schnee
Schneehöhe: 2 cm
Dettingen a. d. Iller-------
Dornstadt-Tomerdingen6,17,58,60,74,612,522,5
Schneehöhe: 11 cm
Dürnau3,5-9,03,54,55,510,0
Schnee
Eberhardzell Lilienweg5,42,411,46,96,29,714,0
Schneehöhe: 32 cm
Ebersbach-Roßwälden1,42,17,20,72,19,224,0
Schneehöhe: 2 cm
Ehingen Rosenstraße3,18,54,00,33,015,422,0
Schnee
Schneehöhe: 2 cm
Ehingen Zanderstraße2,16,85,42,5---
Schnee
Schneehöhe: 8 cm
Ehingen Schlaufenbühl0,310,08,5-3,610,330,7
Schneehöhe: 11 cm
Ehingen Schillerstraße3,48,43,0-3,013,019,9
Schneehöhe: 4 cm
Ehingen-Herbertshofen-------
Eislingen4,57,57,52,13,913,433,6
Schnee
Schneehöhe: 6 cm
Erbach-Bach6,07,52,51,02,511,016,0
Erlenmoos1,15,110,96,95,212,918,2
Schnee
Schneehöhe: 32 cm
Füramoos6,92,1-0,00,00,011,7
Schneehöhe: 50 cm
Gutenzell-6,0--6,012,014,0
Schneehöhe: 17cm
Gutenzell-Hürbel3,06,06,53,03,510,014,0
Schnee
Herbertingen Drosselweg1,37,58,53,52,57,511,5
Vormittags längere Zeit Schneefall. Frühtemperatur Freitag bei -7 Gr [weiterlesen...]
Schnee
Schneehöhe: 12cm
Herbertingen Hirschstrasse-7,06,03,02,06,010,0
Schnee
Schneehöhe: 14 cm
Hochdorf-Schweinhausen--21,5-12,98,616,7
Schneehöhe: 22 cm
Hohentengen-Bremen1,55,55,03,02,06,013,0
Schnee
Schneehöhe: 8,0
Horgenzell-Ringgenweiler6,84,04,34,24,59,717,8
Schnee
Schneehöhe: 23 cm
Hüttisheim1,05,57,03,03,013,015,0
Schnee
Schneehöhe: 7-8
Illerkirchberg2,29,04,01,84,714,919,3
Schnee
Schneehöhe: 5 cm
Inzigkofen2,07,03,20,02,05,812,2
Schnee
Schneehöhe: 12 cm
Isny3,65,812,05,02,411,433,4
Schnee
Schneehöhe: 72 cm
Kirchberg2,07,28,06,04,48,014,0
7 cm Neuschnee
Schnee
Schneehöhe: 25 cm
Kreuzthal-Steinberg-Alpe7,39,122,08,312,123,144,0
Schnee
Schneehöhe: 112 cm
Langenau3,08,54,02,03,010,520,0
Schneehöhe: 4cm
Langenenslingen1,44,34,60,61,88,412,6
Schnee Schneegriesel
Schneehöhe: 10 cm
Leutkirch Unterer Auenweg 256,42,811,59,05,213,822,0
Schnee
Leutkirch Nachtigallenweg 288,04,510,011,06,015,025,0
Schneehöhe: 45cm
Leutkirch-Adrazhofen6,56,512,07,05,031,028,0
Bodennebel
Schneehöhe: 52 cm
Mietingen Seerosenweg 10-------
Schneehöhe: 20 cm
Mietingen-Walpertshofen-------
Mittelbiberach-Reute4,05,26,65,44,58,814,4
Schneeregen Schnee
Schneehöhe: 20 cm
Moosburg1,3-15,05,61,75,014,5
Vereinzelt Schneeschauer, vorwiegend am Vormittag.
Schnee
Schneehöhe: 20 cm
Münsingen-Rietheim3,411,418,22,85,211,826,8
Schnee
Schneehöhe: 44 cm
Neresheim-11,46,51,54,75,414,6
Schnee
Schneehöhe: 15 cm
Oberdischingen-------
Ochsenhausen1,31,810,45,11,22,311,9
Schnee
Schneehöhe: 23 cm
Öpfingen5,07,82,51,13,28,819,0
Schnee
Schneehöhe: 5cm
Ostrach Uhlandweg2,0---14,06,010,5
Pfaffenhofen-Kadeltshofen3,06,07,05,04,09,011,0
Schneehöhe: 7 cm
Pfullendorf Am Schweizersbild -------
Schneehöhe: 17 cm
Rangendingen4,03,0-3,0-6,0-
Schnee
Ravensburg Bleicherstraße-4,48,05,97,110,912,0

Ravensburg-Schmalegg5,05,04,56,55,010,019,5
Schneehöhe: 18.0 cm
Ravensburg-Wernsreute0,69,01,81,62,27,823,0
Ravensburg-Weststadt9,08,81,55,58,010,521,0
Schnee
Schneehöhe: 16 cm
Riedhausen1,44,03,63,42,84,811,4
Temp. -6,6°C / -0,2°C, Windböen NO 14,5 km/h
Schnee
Schneehöhe: 10 cm
Riedlingen-Neufra-------
Schelklingen-Gundershofen7,015,012,0-7,022,025,0
Temp. zw. -2,6°C und +0,7°C. Trüb, ein paar Flocken.
Schneehöhe: 30 cm
Schemmerberg-5,012,05,03,510,524,0
Schwörstadt2,67,4-0,21,012,236,2
Schnee
Schneehöhe: 1 cm
Sigmaringendorf1,15,12,1-2,45,112,2
Tuttlingen-Möhringen Eßlinger Straße1,04,25,00,00,43,217,6
Im Tuttlinger Duttental (710m) wurden 22cm und im Möhringer Kühltal [weiterlesen...]
Schnee
Schneehöhe: 15 cm
Ulm    neu  -------
Ummendorf Tulpenweg13,56,011,03,07,811,519,0
Schnee
Schneehöhe: 16 cm
Ummendorf Friedrich-Schiller-Str.-------
Uttenweiler-Ahlen2,7-12,22,83,88,212,0
Schnee
Vöhringen (Schwarzwald)-1,53,0-3,011,016,0
Schneehöhe: 6,0 cm
Waldburg10,010,013,57,58,510,519,5
Schneehöhe: 53 cm
Wangen-Atzenberg-------
Schneehöhe: Schneedecke
Wangen-Bergerhöhe7,19,111,58,47,817,031,9
Schnee
Schneehöhe: 59 cm
Warthausen An der Schloßhalde -------
Warthausen Schwabenwiesen -6,4-----
Warthausen-Barabein3,05,5--5,011,014,0
Schneehöhe: 10 cm
Weingarten Laurastraße4,24,08,511,08,59,015,0
- 5,4 ° C um 8.00 Uhr, Strassenglätte,
Schneeregen Schnee
Schneehöhe: 11cm
Weingarten Hoyerstraße-------
Weingarten Marienstraße3,56,510,05,08,09,515,0
Schnee
Schneehöhe: 10,0
Wolfegg-Veesers-------
Wolpertswende2,210,30,00,00,00,04,9
Niederschlagsmesser zugeschneit
Schnee
Schneehöhe: 22 cm

Stillgelegte Niederschlagsstationen    -    derzeit 46 Stationen

StationLetzte Meldung07.01.08.01.09.01.10.01.11.01.12.01.13.01.Bemerkung 10.01.
Allmannsweiler02.09.2014-------
Aulendorf-Rugetsweiler 25.07.2013-------
Bad Saulgau Willi-Burth-Straße19.09.2011-------
Bad Saulgau Eichendorffweg28.03.2013-------
Bad Saulgau Seewattenstraße 12815.01.2014-------
Bad Saulgau-Lampertsweiler18.02.2015-------
Bad Schussenried-Steinhausen26.09.2012-------
Bad Waldsee-Michelwinnanden31.12.2014-------
Bad Waldsee-Osterhofen06.03.2015-------
Bad Waldsee-Steinach10.11.2013-------
Bad Wurzach-Haidgau07.10.2012-------
Bad Wurzach-Ziegelbach07.11.2014-------
Bergatreute13.02.2012-------
Betzenweiler05.01.2017-------
Burgrieden28.10.2013-------
Burgrieden-Rot18.09.2013-------
Eberhardzell Schillerstraße05.07.2010-------
Ehingen Am Elzengraben17.06.2016-------
Gammertingen16.01.2016-------
Griesingen06.10.2015-------
Günzburg31.12.2010-------
Hoßkirch05.01.2018-------
Ingoldingen-Grodt19.11.2016-------
Kisslegg02.05.2011-------
Krauchenwies-Hausen23.11.2013-------
Kressbronn10.03.2010-------
Leutkirch-Ottmannshofen27.07.2012-------
Leutkirch-Rotis08.05.2016-------
Leutkirch-Wuchzenhofen19.09.2016-------
Mietingen Hangweg 1530.12.2017-------
Mössingen-Bästenhardt21.07.2014-------
Ostrach Heiligenberger Straße19.08.2013-------
Pfullendorf Ringstraße 18.03.2012-------
Ravensburg Olgastraße30.10.2016-------
Seltmans09.04.2013-------
Stuttgart-Bad Cannstatt03.02.2013-------
Stuttgart-Möhringen23.04.2017-------
Stuttgart-Rohr07.11.2012-------
Talheim21.08.2016-------
Tannheim22.10.2017-------
Tettnang-Ramsbach26.03.2011-------
Tuttlingen-Möhringen Belchenstraße01.01.2015-------
Ummendorf Bergstraße23.10.2017-------
Vogt22.05.2015-------
Weingarten Bischof-Sproll-Straße30.06.2011-------
Wilhelmsdorf Riedhauser Straße 28.10.2012-------
Wilhelmsdorf Seefeld20.08.2013-------
Wurmlingen14.10.2016-------
Die Niederschlagswerte des gewählten Tages lassen sich durch Klicken auf das Datum sortieren.
Die Angaben sind in l/m².

Wetterbeobachtungen Legende:

  • Regen
  • Nieselregen
  • Schneeregen
  • Schnee
  • Graupel
  • Eiskörner
  • Hagel
  • Bodennebel
  • Gewitter
  • Nebelnässe
  • Schneegriesel

Grafische Darstellung der Tagesniederschläge vom 10.01.2019

< 09.01.201911.01.2019 >Monats- und Jahresniederschlag


 
wetterstationen
wetterstationen
- derzeit 73 Stationen
niederschlagsdatenbank
wetterstationen
- kartographische Darstellung
niederschlagsdatenbank
niederschlagsstationen
- derzeit 103 Stationen
niederschlagsdatenbank
niederschlagsstationen
- kartographische Darstellung
 
 
Fr. 7.30 Uhr - Sa. 7.30 Uhr (MEZ)
1.Waldburg2,0 l/m²
2.Ulm1,5 l/m²
3.Amstetten-Reutti0,8 l/m²
4.Langenau0,5 l/m²
5.Dornstadt-Tomerdingen0,5 l/m²
6.Eberhardzell
Lilienweg
0,1 l/m²
7.Eislingen0,1 l/m²
8.Langenenslingen0,1 l/m²
9.Kreuzthal-Steinberg-Alpe0,0 l/m²
10.Ehingen
Rosenstraße
0,0 l/m²
11.Füramoos0,0 l/m²
12.Ehingen
Schillerstraße
0,0 l/m²
13.Ravensburg-Schmalegg0,0 l/m²
 
Sa. 19.01.2019 - 7.30 Uhr (MEZ)
1.Kreuzthal-Steinberg-Alpe108 cm
2.Isny54 cm
3.Leutkirch-Adrazhofen45 cm
4.Waldburg40 cm
5.Bad Wurzach-Seibranz39 cm
6.Münsingen-Rietheim34 cm
7.Schelklingen-Gundershofen24 cm
8.Eberhardzell
Lilienweg
19 cm
9.Amstetten-Reutti18 cm
10.Ochsenhausen15 cm
11.Horgenzell-Ringgenweiler9 cm
12.Tuttlingen-Möhringen
Eßlinger Straße
8 cm
13.Ravensburg-Schmalegg7 cm
14.Langenenslingen2 cm
15.Ehingen
Schillerstraße
1 cm
16.Langenauca 1cm
17.Ulmalles wieder weg
18.Moosburgstark angezuckert
19.AulendorfReste
20.WolpertswendeReste
21.Öpfingen"Reste"
22.Weingarten
Marienstraße
Reste
23.BalzheimReste
24.Riedhausenr
25.Pfaffenhofen-KadeltshofenReste
26.Bad Saulgau
Walserweg
Reste
27.Weingarten
Laurastraße
Reste
 
  treffpunkt & service
--- Anzeigen --------------------------------
zugriffe:
insgesamt: 40.646.156
aktueller monat: 319.237
heute: 12.149
momentan online: 65
 
 
monatshöchstwert: 653.625
vorheriger monat: 400.931
gestern: 9.684
tageshöchstwert: 45.129
 
wetterwarte süd
 
konradstraße 3
info@wetterwarte-sued.com
roland roth
 
88427 bad schussenried